1499562000.49,10149,17.06,74060.0,1.97,-9.57,-19.47,0,*4F
1499562001.72,10150,17.06,74058.3,1.97,-9.49,-19.47,0,*48
1499562002.99,10151,17.13,74062.8,1.97,-9.49,-19.31,0,*48
1499562004.23,10152,17.06,74062.5,1.97,-9.41,-19.07,0,*46
1499562005.47,10153,17.06,74060.8,1.97,-9.11,-19.03,0,*46
1499562006.66,10154,17.06,74058.0,1.99,-9.31,-19.13,0,*4C
1499562007.89,10155,17.06,74062.3,1.99,-9.37,-19.13,0,*4B
1499562009.13,10156,17.06,74062.3,1.99,-9.45,-19.27,0,*4A
1499562010.38,10157,17.06,74058.0,1.99,-9.45,-19.27,0,*4B
1499562011.65,10158,17.06,74056.8,2.01,-9.49,-19.31,0,*4D
1499562012.86,10159,17.06,74058.8,1.99,-9.61,-19.47,0,*45
1499562014.08,10160,17.06,74054.8,1.99,-9.37,-19.17,0,*49
1499562015.31,10161,17.06,74054.0,1.99,-9.37,-19.17,0,*48
1499562016.52,10162,17.06,74054.3,1.99,-9.49,-19.17,0,*42
1499562017.75,10163,17.06,74062.3,1.97,-9.71,-19.37,0,*44
1499562018.94,10164,17.06,74072.5,1.99,-9.67,-19.47,0,*4D
1499562020.13,10165,17.06,74072.3,1.99,-9.23,-18.99,0,*4E
1499562021.32,10166,17.06,74068.3,1.99,-9.23,-19.03,0,*4F
1499562022.54,10167,17.06,74062.3,1.99,-9.45,-19.17,0,*4B
1499562023.78,10168,17.06,74060.5,1.99,-9.53,-19.31,0,*47
1499562025.04,10169,17.06,74060.3,1.97,-9.49,-19.31,0,*43
1499562026.27,10170,17.06,74060.5,1.99,-9.37,-19.13,0,*4C
1499562027.51,10171,17.13,74060.8,1.99,-9.49,-19.31,0,*44
1499562028.75,10172,17.06,74060.0,1.99,-9.53,-19.31,0,*4C
1499562029.97,10173,17.13,74062.0,1.99,-9.49,-19.17,0,*42
1499562031.19,10174,17.06,74050.3,1.99,-9.45,-19.17,0,*49
1499562032.41,10175,17.06,74052.0,1.99,-9.45,-19.13,0,*4C
1499562033.66,10176,17.13,74052.3,2.01,-9.37,-19.13,0,*48
1499562034.87,10177,17.06,74052.3,2.01,-9.31,-18.99,0,*4C
1499562036.09,10178,17.06,74054.0,2.01,-9.31,-19.03,0,*41
1499562037.28,10179,17.06,74052.3,2.03,-9.27,-18.99,0,*47
1499562038.47,10180,17.06,74054.5,2.03,-9.31,-19.07,0,*40
1499562039.71,10181,17.06,74054.8,2.01,-9.37,-19.03,0,*41
1499562040.95,10182,17.06,74058.0,2.01,-9.37,-19.07,0,*46
1499562042.17,10183,17.06,74056.5,2.03,-9.41,-18.99,0,*42
1499562043.41,10184,17.06,74056.0,2.03,-9.61,-19.27,0,*43
1499562044.68,10185,17.06,74062.3,2.01,-9.61,-19.41,0,*40
1499562045.95,10186,17.06,74060.0,2.01,-9.61,-19.27,0,*43
1499562047.17,10187,17.06,74060.8,2.03,-9.49,-19.37,0,*4B
1499562048.42,10188,17.13,74064.3,2.01,-9.37,-19.17,0,*4D
1499562049.64,10189,17.06,74066.8,2.03,-9.61,-19.37,0,*4F
1499562050.89,10190,17.13,74064.3,2.01,-9.75,-19.57,0,*46
1499562052.15,10191,17.06,74062.8,2.05,-9.75,-19.57,0,*43
1499562053.37,10192,17.06,74062.8,2.03,-9.75,-19.41,0,*41
1499562054.6,10193,17.13,74064.3,2.03,-9.71,-19.41,0,*44
1499562055.82,10194,17.06,74060.8,2.03,-9.75,-19.41,0,*47
1499562057.04,10195,17.06,74068.3,2.03,-9.97,-19.65,0,*4C
1499562058.25,10196,17.06,74060.5,2.03,-9.89,-19.61,0,*44
1499562059.45,10197,17.06,74060.0,2.03,-10.01,-19.75,0,*78
1499562060.67,10198,17.06,74060.0,2.03,-10.01,-19.85,0,*78
1499562061.91,10199,17.06,74062.0,2.01,-10.15,-19.91,0,*7B
1499562063.13,10200,17.06,74060.0,2.01,-10.15,-19.91,0,*78
1499562064.36,10201,17.06,74068.0,2.01,-10.15,-19.75,0,*73
1499562065.55,10202,17.13,74066.8,2.03,-9.31,-19.07,0,*49
1499562066.8,10203,17.06,74062.8,2.01,-9.45,-19.13,0,*4C
1499562068.0,10204,17.13,74068.0,2.03,-9.31,-19.13,0,*4A
1499562069.21,10205,17.06,74068.3,2.01,-9.23,-18.99,0,*49
1499562070.47,10206,17.06,74064.0,2.03,-9.15,-18.93,0,*47
1499562071.66,10207,17.06,74060.5,2.03,-9.19,-18.99,0,*40
1499562072.85,10208,17.06,74058.5,2.03,-9.31,-19.07,0,*43
1499562074.07,10209,17.13,74060.8,2.05,-9.31,-19.07,0,*44
1499562075.28,10210,17.13,74062.8,2.07,-9.23,-18.93,0,*41
1499562076.5,10211,17.06,74060.0,2.05,-9.27,-18.99,0,*4C
1499562077.72,10212,17.06,74064.8,2.07,-9.37,-19.03,0,*4E
1499562078.93,10213,17.13,74068.5,2.07,-9.41,-19.03,0,*4E
1499562080.15,10214,17.06,74064.5,2.07,-9.45,-19.17,0,*48
1499562081.36,10215,17.06,74068.8,2.07,-9.57,-19.17,0,*4A
1499562082.6,10216,17.06,74068.3,2.05,-9.71,-19.23,0,*48
1499562083.82,10217,17.06,74068.8,2.11,-9.53,-18.99,0,*4C
1499562085.01,10218,17.06,74068.3,2.07,-9.27,-18.73,0,*43
1499562086.23,10219,17.06,74064.8,2.05,-9.31,-18.79,0,*4D
1499562087.42,10220,17.13,74072.0,2.07,-9.23,-18.41,0,*4D
1499562088.63,10221,17.13,74066.0,2.07,-9.45,-18.79,0,*47
1499562089.83,10222,17.06,74064.0,2.11,-9.79,-19.13,0,*41
1499562091.05,10223,17.06,74064.5,2.11,-9.89,-19.41,0,*48
1499562092.24,10224,17.13,74068.8,2.11,-9.93,-19.47,0,*42
1499562093.43,10225,17.13,74066.0,2.11,-9.89,-19.47,0,*48
1499562094.64,10226,17.13,74058.8,2.07,-10.09,-19.81,0,*76
1499562095.85,10227,17.13,74060.3,2.11,-10.19,-19.91,0,*70
1499562097.04,10228,17.06,74058.3,2.07,-10.27,-19.99,0,*7D
1499562098.25,10229,17.13,74056.8,2.07,-10.35,-20.09,0,*7C
1499562099.52,10230,17.06,74054.3,2.05,-10.41,-20.15,0,*78
1499562100.77,10231,17.06,74050.0,2.05,-10.31,-20.15,0,*7E
1499562102.02,10232,17.06,74052.8,2.05,-10.31,-20.15,0,*7D
1499562103.29,10233,17.06,74050.8,2.05,-10.41,-20.15,0,*7B
1499562104.54,10234,17.13,74058.0,2.05,-10.31,-20.15,0,*7B
1499562105.82,10235,17.06,74064.5,2.05,-10.41,-20.15,0,*7D
1499562107.04,10236,17.06,74064.0,2.03,-10.31,-20.15,0,*7F
1499562108.27,10237,17.06,74066.3,2.03,-10.41,-20.05,0,*78
1499562109.49,10238,17.06,74068.0,2.03,-10.53,-20.19,0,*79
1499562110.7,10239,17.13,74072.3,2.03,-10.45,-20.25,0,*70
1499562111.93,10240,17.06,74070.8,2.01,-10.57,-20.25,0,*7F
1499562113.18,10241,17.06,74072.5,2.01,-10.57,-20.35,0,*7F
1499562114.41,10242,17.06,74068.3,2.01,-10.57,-20.25,0,*7D
1499562115.66,10243,17.06,74072.8,2.01,-10.57,-20.35,0,*7D
1499562116.89,10244,17.06,74072.5,2.01,-10.49,-20.25,0,*74
1499562118.1,10245,17.06,74072.0,1.99,-10.57,-20.25,0,*78
1499562119.35,10246,17.06,74074.8,1.97,-10.63,-20.25,0,*72
1499562120.55,10247,17.06,74076.8,1.99,-10.49,-20.09,0,*7B
1499562121.76,10248,17.06,74078.8,1.99,-10.35,-20.05,0,*73
1499562122.96,10249,17.06,74080.3,1.99,-10.45,-20.05,0,*75
1499562124.2,10250,17.06,74076.0,1.97,-10.41,-19.99,0,*78
1499562125.45,10251,17.06,74076.3,1.97,-10.41,-19.99,0,*79
1499562126.68,10252,17.06,74072.8,1.97,-10.49,-20.09,0,*71
1499562127.92,10253,17.06,74072.8,1.97,-10.41,-19.99,0,*7B
1499562129.15,10254,17.06,74072.0,1.97,-10.49,-20.09,0,*77
1499562130.37,10255,17.06,74070.0,1.99,-10.45,-20.19,0,*75
1499562131.6,10256,17.06,74070.8,1.97,-10.49,-20.25,0,*7B
1499562132.83,10257,17.06,74074.8,1.97,-10.53,-20.15,0,*72
1499562134.09,10258,17.06,74082.5,1.97,-10.41,-20.09,0,*73
1499562135.33,10259,17.06,74084.0,1.97,-10.23,-19.85,0,*78
1499562136.53,10260,17.06,74084.5,1.95,-10.27,-19.91,0,*71
1499562137.76,10261,17.06,74082.0,1.95,-10.23,-19.85,0,*71
1499562138.99,10262,17.06,74076.0,1.97,-9.49,-19.07,0,*4E
1499562140.25,10263,17.06,74078.3,1.97,-9.37,-18.89,0,*41
1499562141.48,10264,17.06,74080.3,1.97,-9.53,-19.07,0,*43
1499562142.7,10265,17.06,74078.0,1.99,-9.67,-19.27,0,*49
1499562143.91,10266,17.06,74078.5,2.01,-9.93,-19.47,0,*45
1499562145.13,10267,17.06,74082.3,2.01,-9.93,-19.47,0,*44
1499562146.37,10268,17.06,74080.3,2.01,-9.37,-18.99,0,*47
1499562147.59,10269,17.13,74082.3,2.01,-9.31,-18.83,0,*4B
1499562148.8,10270,17.06,74078.3,2.01,-9.31,-18.83,0,*43
1499562149.99,10271,17.13,74074.0,2.03,-9.27,-18.79,0,*42
1499562151.21,10272,17.13,74062.3,2.03,-9.61,-19.13,0,*4E
1499562152.4,10273,17.06,74060.5,2.03,-9.97,-19.51,0,*40
1499562153.65,10274,17.06,74068.8,2.01,-9.93,-19.57,0,*47
1499562154.9,10275,17.06,74068.8,2.05,-10.01,-19.61,0,*74
1499562156.15,10276,17.13,74070.0,2.05,-10.01,-19.61,0,*77
1499562157.4,10277,17.13,74070.0,2.05,-10.01,-19.57,0,*73
1499562158.62,10278,17.06,74064.8,2.03,-9.89,-19.41,0,*45
1499562159.89,10279,17.06,74060.3,2.05,-9.83,-19.41,0,*48
1499562161.13,10280,17.06,74062.8,2.05,-9.97,-19.41,0,*4B
1499562162.35,10281,17.06,74064.5,2.05,-10.01,-19.51,0,*7C
1499562163.59,10282,17.06,74066.8,2.05,-9.57,-19.13,0,*42
1499562164.8,10283,17.06,74068.5,2.07,-9.61,-19.13,0,*44
1499562166.05,10284,17.06,74072.0,2.05,-9.75,-19.27,0,*43
1499562167.29,10285,17.06,74074.3,2.05,-9.83,-19.37,0,*4A
1499562168.53,10286,17.06,74072.3,2.05,-9.57,-19.13,0,*46
1499562169.75,10287,17.06,74070.3,2.07,-9.71,-19.23,0,*42
1499562170.96,10288,17.06,74066.0,2.07,-9.83,-19.47,0,*42
1499562172.17,10289,17.06,74060.3,2.07,-10.05,-19.65,0,*75
1499562173.42,10290,17.06,74068.5,2.05,-10.23,-19.85,0,*75
1499562174.61,10291,17.13,74068.5,2.07,-9.79,-19.47,0,*4F
1499562175.83,10292,17.06,74060.3,2.07,-9.97,-19.65,0,*4C
1499562177.02,10293,17.13,74062.0,2.07,-10.09,-19.71,0,*77
1499562178.24,10294,17.06,74058.0,2.07,-10.23,-19.81,0,*77
1499562179.46,10295,17.06,74058.8,2.11,-10.01,-19.65,0,*7B
1499562180.66,10296,17.06,74054.3,2.07,-10.27,-19.95,0,*74
1499562181.86,10297,17.06,74058.8,2.07,-10.49,-19.99,0,*71
1499562183.07,10298,17.06,74060.0,2.11,-10.35,-19.91,0,*7A
1499562184.27,10299,17.06,74060.0,2.07,-10.35,-19.95,0,*78
1499562185.47,10300,17.06,74058.8,2.07,-10.45,-19.99,0,*72
1499562186.66,10301,17.06,74054.0,2.07,-10.49,-19.99,0,*7F
1499562187.91,10302,17.06,74050.8,2.07,-10.63,-20.15,0,*7A
1499562189.2,10303,17.06,74060.0,2.05,-10.67,-20.19,0,*71
1499562190.47,10304,17.06,74066.5,2.05,-10.71,-20.35,0,*7F
1499562191.75,10305,17.06,74068.3,2.05,-10.71,-20.19,0,*70
1499562193.01,10306,17.06,74068.8,2.05,-10.57,-20.19,0,*77
1499562194.29,10307,17.06,74070.0,2.05,-10.79,-20.19,0,*7A
1499562195.54,10308,17.13,74068.5,2.03,-10.67,-20.15,0,*70
1499562196.77,10309,17.06,74068.8,2.03,-10.57,-20.19,0,*7E
1499562198.03,10310,17.06,74074.5,2.03,-10.71,-20.19,0,*72
1499562199.29,10311,17.06,74076.3,2.03,-10.71,-20.19,0,*73
1499562200.51,10312,17.06,74078.8,2.03,-10.85,-20.35,0,*75
1499562201.75,10313,17.06,74078.8,2.03,-10.79,-20.43,0,*76
1499562203.0,10314,17.06,74078.3,2.03,-10.79,-20.35,0,*70
1499562204.28,10315,17.06,74078.0,2.01,-10.71,-20.35,0,*7B
1499562205.54,10316,17.06,74078.5,2.01,-10.63,-20.25,0,*7A
1499562206.77,10317,17.06,74076.8,2.01,-10.85,-20.25,0,*73
1499562207.99,10318,17.06,74080.0,2.01,-10.85,-20.25,0,*7C
1499562209.22,10319,17.06,74078.8,1.99,-10.75,-20.25,0,*70
1499562210.48,10320,17.06,74078.8,1.99,-10.63,-20.19,0,*72
1499562211.73,10321,17.06,74078.0,2.01,-10.57,-20.19,0,*76
1499562212.99,10322,17.06,74078.0,2.01,-10.63,-20.09,0,*73
1499562214.24,10323,17.06,74076.0,2.01,-10.71,-20.09,0,*71
1499562215.49,10324,17.06,74080.3,2.01,-10.57,-20.19,0,*73
1499562216.72,10325,17.13,74080.0,2.01,-10.57,-20.05,0,*7F
1499562218.0,10326,17.13,74082.8,2.01,-10.71,-20.35,0,*7B
1499562219.23,10327,17.06,74080.8,1.99,-10.79,-20.39,0,*7C
1499562220.45,10328,17.13,74080.0,1.97,-10.49,-19.99,0,*7E
1499562221.68,10329,17.06,74074.5,2.01,-10.19,-19.75,0,*74
1499562222.91,10330,17.06,74072.0,1.99,-10.15,-19.61,0,*77
1499562224.14,10331,17.06,74074.3,1.99,-10.15,-19.65,0,*72
1499562225.34,10332,17.06,74072.5,1.99,-10.15,-19.75,0,*70
1499562226.54,10333,17.06,74072.5,1.99,-10.31,-19.75,0,*77
1499562227.77,10334,17.06,74074.8,2.01,-10.31,-19.91,0,*78
1499562229.02,10335,17.06,74074.3,2.01,-10.35,-19.81,0,*7C
1499562230.26,10336,17.06,74068.5,2.01,-10.05,-19.65,0,*76
1499562231.48,10337,17.06,74070.8,2.01,-10.05,-19.47,0,*77
1499562232.73,10338,17.13,74070.5,2.01,-10.15,-19.61,0,*7D
1499562233.97,10339,17.06,74072.0,2.03,-10.15,-19.61,0,*7E
1499562235.22,10340,17.06,74070.8,2.01,-10.19,-19.65,0,*7A
1499562236.45,10341,17.13,74070.5,2.03,-10.09,-19.57,0,*79
1499562237.68,10342,17.06,74068.3,2.03,-10.15,-19.61,0,*72
1499562238.93,10343,17.06,74066.8,2.03,-10.41,-19.85,0,*78
1499562240.13,10344,17.06,74070.3,2.03,-10.23,-19.71,0,*70
1499562241.38,10345,17.06,74074.0,2.01,-10.05,-19.57,0,*73
1499562242.58,10346,17.13,74074.3,2.03,-10.01,-19.37,0,*70
1499562243.84,10347,17.06,74070.8,2.05,-10.09,-19.57,0,*79
1499562245.06,10348,17.06,74072.3,2.05,-10.23,-19.71,0,*7A
1499562246.29,10349,17.13,74072.3,2.05,-10.27,-19.75,0,*7B
1499562247.54,10350,17.13,74074.5,2.05,-10.09,-19.57,0,*7F
1499562248.73,10351,17.06,74070.8,2.07,-9.97,-19.51,0,*45
1499562249.91,10352,17.06,74068.3,2.07,-9.93,-19.37,0,*42
1499562251.16,10353,17.06,74068.3,2.05,-10.01,-19.61,0,*71
1499562252.39,10354,17.06,74064.5,2.07,-10.09,-19.57,0,*79
1499562253.61,10355,17.06,74066.5,2.05,-10.27,-19.71,0,*72
1499562254.84,10356,17.13,74072.0,2.05,-10.27,-19.71,0,*71
1499562256.06,10357,17.13,74070.8,2.05,-10.27,-19.75,0,*74
1499562257.26,10358,17.06,74068.8,2.07,-10.19,-19.71,0,*70
1499562258.52,10359,17.06,74068.0,2.05,-10.01,-19.57,0,*7E
1499562259.71,10360,17.13,74068.8,2.07,-9.71,-19.17,0,*4D
1499562260.92,10361,17.06,74068.8,2.07,-9.57,-19.07,0,*49
1499562262.1,10362,17.06,74068.0,2.07,-9.93,-19.47,0,*46
1499562263.29,10363,17.13,74074.3,2.07,-9.97,-19.71,0,*46
1499562264.5,10364,17.06,74070.5,2.07,-10.09,-19.65,0,*7B
1499562265.71,10365,17.06,74066.5,2.11,-10.19,-19.75,0,*7D
1499562266.94,10366,17.06,74068.5,2.11,-10.31,-19.81,0,*7F
1499562268.14,10367,17.06,74064.5,2.11,-10.19,-19.75,0,*7F
1499562269.37,10368,17.06,74064.5,2.11,-10.15,-19.65,0,*7D
1499562270.61,10369,17.06,74060.8,2.11,-10.15,-19.61,0,*78
1499562271.84,10370,17.06,74064.0,2.11,-10.15,-19.61,0,*70
1499562273.04,10371,17.06,74062.8,2.11,-10.15,-19.75,0,*74
1499562274.24,10372,17.13,74068.0,2.11,-10.01,-19.47,0,*73
1499562275.46,10373,17.13,74070.5,2.11,-9.93,-19.41,0,*47
1499562276.71,10374,17.06,74068.5,2.13,-10.01,-19.61,0,*73
1499562277.93,10375,17.06,74068.0,2.11,-10.05,-19.65,0,*70
1499562279.18,10376,17.06,74070.3,2.13,-10.05,-19.65,0,*71
1499562280.4,10377,17.06,74068.0,2.11,-10.01,-19.61,0,*72
1499562281.62,10378,17.06,74066.0,2.13,-10.05,-19.75,0,*7E
1499562282.87,10379,17.13,74064.5,2.13,-10.19,-19.81,0,*79
1499562284.08,10380,17.06,74058.0,2.11,-10.23,-19.91,0,*75
1499562285.31,10381,17.06,74054.3,2.11,-10.49,-20.19,0,*72
1499562286.51,10382,17.06,74054.5,2.11,-10.49,-20.25,0,*7E
1499562287.71,10383,17.13,74054.3,2.11,-10.45,-20.09,0,*7D
1499562288.97,10384,17.06,74056.3,2.11,-10.63,-20.35,0,*71
1499562290.23,10385,17.06,74062.3,2.11,-10.71,-20.35,0,*73
1499562291.43,10386,17.06,74064.5,2.11,-10.57,-20.25,0,*75
1499562292.64,10387,17.06,74058.8,2.11,-10.45,-20.09,0,*79
1499562293.84,10388,17.06,74062.8,2.11,-10.31,-19.91,0,*7E
1499562295.07,10389,17.06,74066.5,2.07,-10.41,-19.99,0,*77
1499562296.27,10390,17.06,74070.0,2.11,-10.49,-20.09,0,*73
1499562297.47,10391,17.06,74066.8,2.11,-10.45,-19.95,0,*71
1499562298.68,10392,17.06,74064.8,2.11,-10.35,-19.95,0,*75
1499562299.91,10393,17.06,74066.8,2.13,-10.31,-19.95,0,*72
1499562301.12,10394,17.06,74070.8,2.07,-10.35,-19.99,0,*78
1499562302.35,10395,17.06,74074.5,2.11,-10.15,-19.65,0,*7F
1499562303.55,10396,17.06,74076.5,2.11,-10.23,-19.91,0,*72
1499562304.75,10397,17.13,74080.3,2.11,-10.45,-20.05,0,*74
1499562305.96,10398,17.06,74080.0,2.11,-10.35,-19.95,0,*7F
1499562307.17,10399,17.06,74076.0,2.11,-10.31,-20.05,0,*79
1499562308.38,10400,17.13,74078.0,2.11,-10.31,-19.95,0,*7D
1499562309.58,10401,17.13,74076.5,2.11,-10.23,-19.95,0,*7F
1499562310.79,10402,17.06,74068.8,2.11,-10.35,-19.95,0,*7B
1499562312.0,10403,17.13,74068.8,2.11,-10.35,-19.95,0,*7A
1499562313.21,10404,17.06,74064.5,2.11,-10.35,-20.09,0,*72
1499562314.41,10405,17.06,74062.8,2.07,-10.27,-19.99,0,*74
1499562315.62,10406,17.06,74066.3,2.11,-10.19,-19.91,0,*75
1499562316.82,10407,17.06,74068.3,2.11,-10.31,-19.91,0,*7E
1499562318.02,10408,17.06,74070.0,2.11,-10.45,-20.09,0,*79
1499562319.23,10409,17.06,74070.0,2.11,-10.49,-20.09,0,*74
1499562320.44,10410,17.06,74068.8,2.11,-10.57,-20.25,0,*7D
1499562321.72,10411,17.06,74074.0,2.05,-10.67,-20.35,0,*7B
1499562322.98,10412,17.06,74072.8,2.05,-10.71,-20.43,0,*7E
1499562324.19,10413,17.06,74068.0,2.07,-10.53,-20.15,0,*7E
1499562325.42,10414,17.06,74068.3,2.05,-10.31,-20.05,0,*7E
1499562326.62,10415,17.13,74066.8,2.07,-10.49,-20.09,0,*7E
1499562327.86,10416,17.06,74070.0,2.05,-10.57,-20.15,0,*7D
1499562329.11,10417,17.06,74074.3,2.05,-10.45,-20.15,0,*7F
1499562330.34,10418,17.06,74068.5,2.05,-10.15,-19.75,0,*79
1499562331.59,10419,17.06,74070.0,2.05,-10.31,-19.85,0,*71
1499562332.79,10420,17.06,74072.0,2.07,-10.27,-19.95,0,*7F
1499562334.04,10421,17.06,74070.0,2.05,-10.01,-19.61,0,*73
1499562335.23,10422,17.06,74068.8,2.07,-10.09,-19.71,0,*7B
1499562336.43,10423,17.06,74068.5,2.07,-10.27,-19.95,0,*7C
1499562337.65,10424,17.06,74068.8,2.07,-10.05,-19.65,0,*74
1499562338.86,10425,17.06,74070.8,2.07,-9.53,-19.17,0,*4B
1499562340.11,10426,17.13,74074.5,2.07,-9.41,-18.93,0,*46
1499562341.31,10427,17.06,74070.5,2.07,-9.45,-19.07,0,*4F
1499562342.54,10428,17.06,74072.0,2.11,-9.75,-19.31,0,*41
1499562343.76,10429,17.06,74068.0,2.11,-9.79,-19.41,0,*4B
1499562344.97,10430,17.13,74074.5,2.11,-9.53,-19.03,0,*4D
1499562346.19,10431,17.13,74072.3,2.11,-9.67,-19.31,0,*4A
1499562347.44,10432,17.06,74068.0,2.13,-9.67,-19.27,0,*4C
1499562348.68,10433,17.06,74064.8,2.13,-9.61,-19.17,0,*48
1499562349.93,10434,17.06,74064.5,2.13,-9.49,-19.13,0,*41
1499562351.17,10435,17.06,74066.8,2.13,-9.75,-19.27,0,*48
1499562352.42,10436,17.06,74066.8,2.13,-9.75,-19.41,0,*4B
1499562353.62,10437,17.06,74064.3,2.15,-9.75,-19.37,0,*4D
1499562354.84,10438,17.06,74066.5,2.17,-9.71,-19.37,0,*44
1499562356.06,10439,17.06,74066.3,2.15,-9.75,-19.27,0,*42
1499562357.31,10440,17.06,74064.0,2.15,-9.37,-18.93,0,*44
1499562358.53,10441,17.13,74066.8,2.17,-9.31,-18.83,0,*40
1499562359.73,10442,17.06,74066.5,2.19,-9.57,-19.07,0,*40
1499562360.94,10443,17.06,74070.0,2.19,-9.53,-19.03,0,*41
1499562362.2,10444,17.06,74066.8,2.17,-9.61,-19.23,0,*4B
1499562363.44,10445,17.06,74072.5,2.17,-9.61,-19.13,0,*49
1499562364.66,10446,17.06,74064.5,2.19,-9.53,-19.17,0,*41
1499562365.87,10447,17.06,74068.5,2.19,-9.45,-19.07,0,*46
1499562367.09,10448,17.06,74064.0,2.19,-9.67,-19.31,0,*4C
1499562368.34,10449,17.06,74070.0,2.21,-9.75,-19.31,0,*45
1499562369.53,10450,17.06,74066.5,2.19,-9.79,-19.37,0,*4C
1499562370.76,10451,17.06,74066.8,2.19,-9.71,-19.31,0,*43
1499562371.98,10452,17.06,74066.3,2.21,-9.79,-19.51,0,*45
1499562373.19,10453,17.13,74066.3,2.19,-9.83,-19.51,0,*4A
1499562374.42,10454,17.06,74062.8,2.19,-9.93,-19.57,0,*4A
1499562375.66,10455,17.13,74064.5,2.21,-9.89,-19.61,0,*4E
1499562376.91,10456,17.06,74056.5,2.21,-10.01,-19.61,0,*75
1499562378.14,10457,17.06,74066.5,2.21,-10.31,-19.91,0,*78
1499562379.34,10458,17.06,74066.3,2.19,-10.23,-19.71,0,*71
1499562380.56,10459,17.06,74066.8,2.19,-10.23,-19.81,0,*7F
1499562381.79,10460,17.06,74068.0,2.21,-10.23,-19.91,0,*7F
1499562383.05,10461,17.06,74070.5,2.21,-10.19,-19.81,0,*76
1499562384.29,10462,17.06,74070.5,2.21,-10.05,-19.65,0,*72
1499562385.51,10463,17.06,74066.0,2.17,-10.09,-19.71,0,*7F
1499562386.78,10464,17.13,74076.8,2.17,-9.83,-19.41,0,*41
1499562388.02,10465,17.06,74076.8,2.17,-9.71,-19.23,0,*49
1499562389.29,10466,17.06,74074.5,2.17,-9.49,-19.23,0,*41
1499562390.54,10467,17.06,74060.5,2.21,-9.53,-19.17,0,*49
1499562391.76,10468,17.13,74060.8,2.19,-9.71,-19.31,0,*49
1499562392.95,10469,17.13,74058.5,2.19,-9.93,-19.51,0,*42
1499562394.18,10470,17.06,74054.0,2.19,-10.35,-19.85,0,*77
1499562395.39,10471,17.06,74060.8,2.19,-10.49,-20.15,0,*7E
1499562396.61,10472,17.13,74072.3,2.19,-10.53,-20.15,0,*76
1499562397.83,10473,17.06,74072.8,2.19,-10.53,-20.15,0,*77
1499562399.05,10474,17.06,74072.3,2.19,-10.35,-19.81,0,*77
1499562400.28,10475,17.06,74068.3,2.19,-10.27,-19.85,0,*71
1499562401.5,10476,17.06,74072.0,2.15,-10.31,-19.85,0,*79
1499562402.73,10477,17.06,74066.8,2.19,-10.05,-19.57,0,*7C
1499562403.95,10478,17.13,74068.0,2.19,-9.97,-19.57,0,*40
1499562405.17,10479,17.13,74070.3,2.19,-10.09,-19.65,0,*7F
1499562406.39,10480,17.06,74068.3,2.19,-10.23,-19.81,0,*7B
1499562407.61,10481,17.06,74070.3,2.19,-10.23,-19.81,0,*7A
1499562408.86,10482,17.13,74074.3,2.19,-10.41,-19.85,0,*79
1499562410.08,10483,17.06,74076.3,2.19,-10.27,-19.81,0,*7C
1499562411.29,10484,17.06,74074.0,2.15,-10.31,-19.75,0,*7B
1499562412.54,10485,17.06,74074.8,2.17,-10.19,-19.61,0,*77
1499562413.79,10486,17.06,74078.3,2.17,-9.75,-19.27,0,*44
1499562415.02,10487,17.06,74080.0,2.17,-9.61,-19.07,0,*42
1499562416.26,10488,17.06,74074.5,2.17,-9.61,-19.13,0,*48
1499562417.49,10489,17.06,74068.3,2.21,-9.75,-19.17,0,*4D
1499562418.71,10490,17.06,74056.8,2.19,-10.05,-19.65,0,*74
1499562419.97,10491,17.06,74052.5,2.21,-10.19,-19.61,0,*77
1499562421.19,10492,17.06,74054.3,2.19,-10.27,-19.81,0,*7C
1499562422.41,10493,17.06,74048.3,2.19,-10.27,-19.81,0,*7D
1499562423.67,10494,17.06,74050.5,2.21,-10.19,-19.65,0,*76
1499562424.87,10495,17.06,74056.5,2.19,-10.23,-19.71,0,*70
1499562426.1,10496,17.13,74056.5,2.21,-10.31,-19.75,0,*7F
1499562427.3,10497,17.13,74066.0,2.19,-10.35,-19.71,0,*75
1499562428.53,10498,17.06,74054.3,2.19,-10.35,-19.81,0,*75
1499562429.73,10499,17.06,74048.8,2.19,-10.23,-19.71,0,*7C
1499562430.98,10500,17.06,74052.0,2.21,-10.23,-19.61,0,*77
1499562432.2,10501,17.06,74064.3,2.19,-10.49,-19.85,0,*7B
1499562433.44,10502,17.06,74068.3,2.19,-10.63,-20.09,0,*7E
1499562434.66,10503,17.06,74076.5,2.19,-10.63,-19.99,0,*7C
1499562435.86,10504,17.13,74078.0,2.19,-10.53,-19.95,0,*74
1499562437.09,10505,17.06,74076.0,2.17,-10.45,-19.75,0,*72
1499562438.29,10506,17.13,74078.8,2.19,-10.35,-19.71,0,*7C
1499562439.49,10507,17.06,74070.8,2.19,-10.35,-19.71,0,*7D
1499562440.72,10508,17.06,74070.8,2.19,-10.23,-19.65,0,*70
1499562441.95,10509,17.06,74072.3,2.19,-10.23,-19.57,0,*70
1499562443.2,10510,17.06,74072.8,2.21,-10.31,-19.65,0,*71
1499562444.43,10511,17.06,74070.8,2.17,-10.19,-19.71,0,*7A
1499562445.68,10512,17.06,74070.5,2.17,-9.97,-19.41,0,*44
1499562446.87,10513,17.06,74062.0,2.19,-10.05,-19.37,0,*79
1499562448.1,10514,17.06,74060.0,2.19,-10.15,-19.57,0,*79
1499562449.34,10515,17.06,74066.0,2.19,-10.27,-19.57,0,*79
1499562450.56,10516,17.06,74068.5,2.19,-10.09,-19.41,0,*71
1499562451.75,10517,17.06,74066.5,2.19,-10.05,-19.37,0,*7D
1499562453.0,10518,17.06,74066.3,2.21,-10.01,-19.31,0,*7B
1499562454.22,10519,17.06,74068.3,2.19,-10.23,-19.41,0,*76
1499562455.46,10520,17.06,74064.8,2.19,-10.27,-19.57,0,*7F
1499562456.66,10521,17.06,74066.3,2.19,-10.27,-19.51,0,*78
1499562457.89,10522,17.06,74070.3,2.19,-10.35,-19.57,0,*7E
1499562459.15,10523,17.06,74058.3,2.21,-10.31,-19.61,0,*75
1499562460.37,10524,17.06,74064.5,2.21,-10.09,-19.37,0,*7A
1499562461.6,10525,17.06,74062.5,2.21,-10.23,-19.51,0,*73
1499562462.85,10526,17.06,74062.5,2.19,-10.41,-19.65,0,*78
1499562464.1,10527,17.06,74070.3,2.19,-10.41,-19.65,0,*79
1499562465.36,10528,17.13,74070.5,2.21,-10.45,-19.65,0,*79
1499562466.61,10529,17.13,74070.5,2.19,-10.63,-19.81,0,*7D
1499562467.84,10530,17.13,74068.8,2.21,-10.57,-19.75,0,*72
1499562469.09,10531,17.06,74068.5,2.21,-10.35,-19.65,0,*76
1499562470.32,10532,17.06,74062.0,2.19,-10.15,-19.65,0,*7C
1499562471.57,10533,17.06,74058.3,2.21,-9.93,-19.27,0,*46
1499562472.81,10534,17.06,74050.8,2.21,-9.93,-19.31,0,*46
1499562474.0,10535,17.06,74056.5,2.19,-10.09,-19.51,0,*71
1499562475.23,10536,17.06,74058.5,2.21,-10.19,-19.51,0,*78
1499562476.43,10537,17.06,74054.5,2.23,-10.23,-19.51,0,*72
1499562477.66,10538,17.06,74056.0,2.23,-10.35,-19.61,0,*79
1499562478.9,10539,17.06,74062.5,2.21,-10.57,-19.95,0,*75
1499562480.12,10540,17.06,74064.8,2.19,-10.75,-20.09,0,*7F
1499562481.35,10541,17.06,74062.3,2.23,-10.57,-19.81,0,*7D
1499562482.57,10542,17.13,74060.5,2.21,-10.57,-19.75,0,*77
1499562483.8,10543,17.13,74060.0,2.19,-10.41,-19.71,0,*7E
1499562485.02,10544,17.06,74060.3,2.21,-10.09,-19.37,0,*7C
1499562486.24,10545,17.06,74060.5,2.21,-9.89,-19.13,0,*4B
1499562487.43,10546,17.06,74060.8,2.23,-9.75,-18.83,0,*41
1499562488.64,10547,17.06,74072.3,2.25,-9.75,-18.83,0,*46
1499562489.83,10548,17.06,74064.8,2.23,-9.79,-18.99,0,*48
1499562491.05,10549,17.06,74056.8,2.23,-10.05,-19.27,0,*7E
1499562492.29,10550,17.06,74064.8,2.25,-9.83,-18.99,0,*42
1499562493.48,10551,17.06,74066.8,2.23,-10.09,-19.37,0,*7A
1499562494.67,10552,17.06,74054.0,2.23,-10.09,-19.37,0,*79
1499562495.92,10553,17.06,74070.5,2.25,-10.01,-19.23,0,*73
1499562497.16,10554,17.06,74066.8,2.25,-10.05,-19.27,0,*74
1499562498.36,10555,17.13,74072.0,2.23,-10.23,-19.47,0,*71
1499562499.61,10556,17.06,74070.0,2.25,-10.15,-19.27,0,*77
1499562500.84,10557,17.06,74068.3,2.23,-10.31,-19.61,0,*74